Home   Weather   Hof (Saale)   Past weeks

Flag for Germany Past Weather in Hof (Saale), Bavaria, Germany — Yesterday and Last 2 Weeks

Now
52 °F

Fog.


Feels Like: 52 °F
Forecast: 49 / 66 °F
Wind: No wind

Location: Hof Airport

Current Time: Sep 27, 2016 at 7:26:00 AM

Latest Report: Sep 27, 2016 at 6:50 AM


Visibility: 1 mi

Pressure: 30.24 "Hg

Humidity: 88%

Dew Point: 48 °F

Location of Hof (Saale)Location

Past Weather in Hof (Saale) — Graph

°F

Hof (Saale) Temperature Yesterday

Maximum temperature yesterday: 61 °F (at 4:20 PM)
Minimum temperature yesterday: 45 °F (at 6:50 AM)
Average temperature yesterday: 56 °F

High & Low Weather Summary for the Past Weeks

 TemperatureHumidityPressure
High82 °F (Sep 12, 1:50 PM)94% (Sep 17, 9:20 AM)30.33 "Hg (Sep 17, 9:20 AM)
Low39 °F (Sep 21, 7:20 AM)26% (Sep 13, 3:20 PM)29.86 "Hg (Sep 17, 11:50 AM)
Average62 °F65%30.09 "Hg
* Reported Sep 12 6:50 AM — Sep 26 7:50 PM, Hof (Saale), Weather by CustomWeather, © 2016

Note: Actual official high and low records may vary slightly from our data, if they occured in-between our weather recording intervals... More about our weather records

Advertising

Hof (Saale) Weather History for the Previous 24 Hours

Scroll right to see more
 ConditionsComfort  
Time TempWeatherWind HumidityBarometerVisibility
7:50 PM
Mon, Sep 26
57 °FOvercast.9 mph77%30.21 "Hg5 mi
7:20 PM57 °FOvercast.8 mph82%30.21 "Hg6 mi
6:50 PM57 °FOvercast.6 mph82%30.21 "HgN/A
6:20 PM57 °FOvercast.8 mph77%30.21 "HgN/A
5:50 PM59 °FPartly sunny.8 mph72%30.21 "HgN/A
5:20 PM61 °FPartly sunny.8 mph72%30.21 "HgN/A
4:50 PM61 °FScattered clouds.10 mph72%30.21 "HgN/A
4:20 PM61 °FScattered clouds.7 mph72%30.21 "Hg6 mi
3:50 PM59 °FScattered clouds.7 mph77%30.21 "Hg6 mi
3:20 PM59 °FScattered clouds.6 mph77%30.21 "Hg6 mi
2:50 PM59 °FPartly sunny.5 mph77%30.18 "Hg6 mi
2:20 PM57 °FPartly sunny.5 mph77%30.21 "Hg6 mi
1:50 PM57 °FPartly sunny.5 mph82%30.21 "Hg4 mi
1:20 PM55 °FLow clouds.6 mph82%30.21 "Hg4 mi
12:50 PM55 °FLow clouds.6 mph82%30.21 "Hg4 mi
12:20 PM55 °FLow clouds.7 mph82%30.21 "Hg4 mi
11:50 AM55 °FLow clouds.8 mph82%30.21 "Hg4 mi
11:20 AM55 °FLow clouds.8 mph82%30.21 "Hg5 mi
10:50 AM55 °FLow clouds.8 mph82%30.21 "Hg5 mi
10:20 AM55 °FPassing clouds.7 mph82%30.18 "HgN/A
9:50 AM55 °FPassing clouds.7 mph82%30.18 "HgN/A
9:20 AM55 °FSunny.3 mph77%30.18 "Hg10 mi
8:50 AM54 °FSunny.2 mph82%30.18 "Hg10 mi
8:20 AM50 °FSunny.No wind88%30.18 "Hg10 mi
7:50 AM46 °FClear.2 mph93%30.18 "Hg5 mi
7:20 AM45 °FFog.No wind93%30.18 "Hg3 mi
Weather by CustomWeather, © 2016

See weather overviewHow to use our weather pages